Lapeer, MI

5:46 PM EDT on August 24, 2016 (GMT -0400)
Lapeer

Weather History for KD95 - June, 2013

Change the Weather History Date:

Friday, June 21, 2013

  Actual Average (KFNT) Record (KFNT)
Temperature  
Mean Temperature 68 °F 68 °F  
Max Temperature 83 °F 80 °F 98 °F (1923)
Min Temperature 53 °F 57 °F 40 °F (1969)
Degree Days  
Heating Degree Days 0 1  
Month to date heating degree days 57  
Since 1 June heating degree days 57  
Since 1 July heating degree days 6944  
Cooling Degree Days 3 5  
Month to date cooling degree days 64  
Year to date cooling degree days 96  
Since 1 June cooling degree days 64  
Growing Degree Days 18 (Base 50)    
Moisture  
Dew Point 59 °F    
Average Humidity 71    
Maximum Humidity 97    
Minimum Humidity 52    
Precipitation  
Precipitation 0.00 in 0.11 in 1.80 in (2006)
Month to date precipitation 2.18  
Year to date precipitation 13.17  
Snow  
Snow 0.00 in 0.00 in 0.00 in ()
Month to date snowfall 0.0  
Since 1 June snowfall 0.0  
Since 1 July snowfall 47.4  
Snow Depth -    
Sea Level Pressure  
Sea Level Pressure 30.16 in    
Wind  
Wind Speed 3 mph (South)    
Max Wind Speed 10 mph    
Max Gust Speed -    
Visibility 10 miles    
Events      
T = Trace of Precipitation, MM = Missing Value Source: NWS Daily Summary

Daily Weather History Graph

Daily Weather History Graph

Search for Another Location

Airport or City:

Trip Planner

Search our weather history database for the weather conditions in past years. The results will help you decide how hot, cold, wet, or windy it might be!

Date:

Astronomy

Jun. 21, 2013 Rise Set
Actual Time 5:53 AM EDT 9:16 PM EDT
Civil Twilight 5:18 AM EDT 9:51 PM EDT
Nautical Twilight 4:32 AM EDT 10:37 PM EDT
Astronomical Twilight 3:34 AM EDT 11:35 PM EDT
Moon 7:23 PM EDT (6/21) 4:10 AM EDT (6/21)
Length of Visible Light 16h 33m
Length of Day
15h 22m
Waxing Gibbous, 95% of the Moon is Illuminated
Jun 21
Waxing Gibbous
Jun 23
Full
Jun 30
Last Quarter
Jul 8
New
Jul 15
First Quarter

Hourly Weather History & Observations

Time (EDT) Temp. Heat Index Dew Point Humidity Pressure Visibility Wind Dir Wind Speed Gust Speed Precip Events Conditions
12:13 AM 60.4 °F - 54.7 °F 81% 30.22 in 10.0 mi Calm Calm - N/A   Clear
12:34 AM 60.3 °F - 53.4 °F 78% 30.22 in 10.0 mi Calm Calm - N/A   Clear
12:54 AM 57.4 °F - 54.7 °F 91% 30.22 in 10.0 mi Calm Calm - N/A   Clear
1:14 AM 57.6 °F - 54.7 °F 90% 30.22 in 10.0 mi Calm Calm - N/A   Clear
1:33 AM 56.8 °F - 55.2 °F 94% 30.22 in 10.0 mi Calm Calm - N/A   Clear
1:54 AM 56.3 °F - 54.5 °F 94% 30.21 in 10.0 mi Calm Calm - N/A   Clear
2:14 AM 55.8 °F - 54.7 °F 96% 30.21 in 10.0 mi Calm Calm - N/A   Clear
2:33 AM 55.4 °F - 54.5 °F 97% 30.21 in 10.0 mi Calm Calm - N/A   Clear
2:54 AM 55.4 °F - 53.8 °F 94% 30.20 in 10.0 mi Calm Calm - N/A   Clear
3:14 AM 54.9 °F - 53.8 °F 96% 30.20 in 10.0 mi Calm Calm - N/A   Clear
3:33 AM 54.5 °F - 53.6 °F 97% 30.20 in 10.0 mi Calm Calm - N/A   Clear
3:54 AM 54.5 °F - 53.2 °F 96% 30.20 in 10.0 mi Calm Calm - N/A   Clear
4:14 AM 54.5 °F - 53.6 °F 97% 30.20 in 10.0 mi Calm Calm - N/A   Clear
4:33 AM 54.0 °F - 52.9 °F 96% 30.20 in 10.0 mi Calm Calm - N/A   Clear
4:54 AM 54.0 °F - 53.1 °F 97% 30.19 in 10.0 mi Calm Calm - N/A   Clear
5:13 AM 53.6 °F - 52.7 °F 97% 30.20 in 10.0 mi Calm Calm - N/A   Clear
5:33 AM 53.8 °F - 52.7 °F 96% 30.20 in 10.0 mi Calm Calm - N/A   Clear
5:54 AM 53.2 °F - 52.3 °F 97% 30.20 in 10.0 mi Calm Calm - N/A   Clear
6:13 AM 53.1 °F - 52.2 °F 97% 30.20 in 10.0 mi Calm Calm - N/A   Clear
6:33 AM 54.5 °F - 53.2 °F 96% 30.20 in 10.0 mi Calm Calm - N/A   Clear
6:54 AM 55.6 °F - 53.4 °F 92% 30.20 in 10.0 mi Calm Calm - N/A   Clear
7:13 AM 57.6 °F - 55.0 °F 91% 30.19 in 10.0 mi Calm Calm - N/A   Clear
7:33 AM 61.2 °F - 54.1 °F 78% 30.19 in 10.0 mi Calm Calm - N/A   Clear
7:54 AM 63.3 °F - 55.0 °F 74% 30.20 in 10.0 mi Calm Calm - N/A   Clear
8:13 AM 64.9 °F - 55.4 °F 71% 30.22 in 10.0 mi Calm Calm - N/A   Clear
8:33 AM 67.1 °F - 55.9 °F 67% 30.23 in 10.0 mi Calm Calm - N/A   Clear
8:54 AM 69.3 °F - 57.2 °F 65% 30.23 in 10.0 mi SSE 3.5 mph - N/A   Clear
9:13 AM 71.1 °F - 58.3 °F 64% 30.21 in 10.0 mi SSE 4.6 mph - N/A   Clear
9:34 AM 72.1 °F - 58.1 °F 61% 30.19 in 10.0 mi SSE 8.1 mph - N/A   Clear
9:54 AM 73.6 °F - 59.5 °F 61% 30.18 in 10.0 mi South 5.8 mph - N/A   Clear
10:13 AM 74.8 °F - 60.4 °F 61% 30.18 in 10.0 mi South 6.9 mph - N/A   Clear
10:34 AM 74.3 °F - 61.2 °F 63% 30.20 in 10.0 mi South 3.5 mph - N/A   Scattered Clouds
10:53 AM 74.8 °F - 61.5 °F 63% 30.20 in 10.0 mi SSW 5.8 mph - N/A   Overcast
11:13 AM 74.5 °F - 61.0 °F 63% 30.20 in 10.0 mi South 4.6 mph - N/A   Overcast
11:34 AM 74.8 °F - 62.6 °F 66% 30.20 in 10.0 mi South 8.1 mph - N/A   Mostly Cloudy
11:53 AM 76.8 °F - 62.6 °F 61% 30.20 in 10.0 mi South 5.8 mph - N/A   Scattered Clouds
12:13 PM 77.9 °F - 63.1 °F 60% 30.21 in 10.0 mi SSW 5.8 mph - N/A   Scattered Clouds
12:34 PM 78.3 °F - 63.5 °F 60% 30.20 in 10.0 mi SSW 6.9 mph - N/A   Mostly Cloudy
12:53 PM 78.1 °F - 62.1 °F 58% 30.19 in 10.0 mi SSW 6.9 mph - N/A   Mostly Cloudy
1:14 PM 78.6 °F - 62.6 °F 58% 30.18 in 10.0 mi South 6.9 mph - N/A   Overcast
1:34 PM 79.9 °F - 62.6 °F 55% 30.17 in 10.0 mi South 8.1 mph - N/A   Mostly Cloudy
1:53 PM 80.6 °F 81.8 °F 62.4 °F 54% 30.17 in 10.0 mi SSW 10.4 mph - N/A   Scattered Clouds
2:14 PM 80.6 °F 81.9 °F 63.1 °F 55% 30.18 in 10.0 mi South 4.6 mph - N/A   Mostly Cloudy
2:34 PM 80.2 °F 81.5 °F 62.6 °F 55% 30.17 in 10.0 mi SSW 6.9 mph - N/A   Overcast
2:53 PM 81.5 °F 82.9 °F 63.9 °F 55% 30.17 in 10.0 mi South 6.9 mph - N/A   Mostly Cloudy
3:14 PM 81.5 °F 82.9 °F 63.7 °F 55% 30.17 in 10.0 mi SSW 8.1 mph - N/A   Scattered Clouds
3:34 PM 82.6 °F 84.1 °F 64.2 °F 54% 30.16 in 10.0 mi South 8.1 mph - N/A   Scattered Clouds
3:53 PM 83.1 °F 84.4 °F 63.9 °F 52% 30.16 in 10.0 mi South 8.1 mph - N/A   Clear
4:14 PM 81.9 °F 83.4 °F 64.2 °F 55% 30.15 in 10.0 mi SSW 6.9 mph - N/A   Clear
4:34 PM 81.0 °F 82.6 °F 64.2 °F 57% 30.13 in 10.0 mi South 6.9 mph - N/A   Mostly Cloudy
4:53 PM 81.0 °F 82.6 °F 64.6 °F 57% 30.12 in 10.0 mi SSE 10.4 mph - N/A   Scattered Clouds
5:14 PM 79.9 °F - 66.0 °F 62% 30.12 in 10.0 mi SSE 8.1 mph - N/A   Clear
5:33 PM 79.7 °F - 65.8 °F 62% 30.11 in 10.0 mi South 6.9 mph - N/A   Clear
5:53 PM 79.0 °F - 65.8 °F 64% 30.10 in 10.0 mi South 6.9 mph - N/A   Clear
6:14 PM 79.2 °F - 66.2 °F 64% 30.09 in 10.0 mi SSE 6.9 mph - N/A   Clear
6:33 PM 81.0 °F 83.0 °F 65.8 °F 60% 30.08 in 10.0 mi South 8.1 mph - N/A   Clear
6:53 PM 80.2 °F 81.6 °F 63.3 °F 56% 30.08 in 10.0 mi South 5.8 mph - N/A   Clear
7:14 PM 80.1 °F 81.4 °F 62.6 °F 55% 30.08 in 10.0 mi South 6.9 mph - N/A   Clear
7:33 PM 79.9 °F - 61.3 °F 53% 30.07 in 10.0 mi South 6.9 mph - N/A   Clear
7:54 PM 79.2 °F - 61.0 °F 54% 30.07 in 10.0 mi South 6.9 mph - N/A   Clear
8:14 PM 78.8 °F - 61.5 °F 55% 30.07 in 10.0 mi South 5.8 mph - N/A   Clear
8:33 PM 78.6 °F - 61.7 °F 56% 30.07 in 10.0 mi South 5.8 mph - N/A   Clear
8:54 PM 77.5 °F - 60.1 °F 55% 30.06 in 10.0 mi South 6.9 mph - N/A   Clear
9:14 PM 76.1 °F - 60.6 °F 59% 30.07 in 10.0 mi South 4.6 mph - N/A   Clear
9:33 PM 74.8 °F - 60.6 °F 61% 30.08 in 10.0 mi South 4.6 mph - N/A   Clear
9:54 PM 73.2 °F - 60.8 °F 65% 30.08 in 10.0 mi South 4.6 mph - N/A   Clear
10:13 PM 73.0 °F - 60.8 °F 65% 30.10 in 10.0 mi SSE 3.5 mph - N/A   Clear
10:33 PM 71.4 °F - 61.0 °F 70% 30.10 in 10.0 mi SSE 4.6 mph - N/A   Clear
10:53 PM 71.1 °F - 60.8 °F 70% 30.10 in 10.0 mi SSE 4.6 mph - N/A   Clear
11:13 PM 69.1 °F - 60.8 °F 75% 30.10 in 10.0 mi SSE 4.6 mph - N/A   Clear
11:34 PM 69.1 °F - 60.8 °F 75% 30.10 in 10.0 mi SE 3.5 mph - N/A   Clear
11:53 PM 68.9 °F - 60.6 °F 75% 30.11 in 10.0 mi SSE 3.5 mph - N/A   Clear